www.pogodaiklimat.ru

Погода и климат >> Архив погоды >> Дания >> Kegnaes


ПОГОДА в Kegnaes

  • Прогноз погоды в Kegnaes
  • Монитор погоды в Kegnaes
  • Климат города

АРХИВ ПОГОДЫ в Kegnaes

Время (UTC), дата Ветер
(напр.,м/с)
 
Видим.   Явления Облачность Т
(С)
Тd
(С)
f
(%)
Тe
(С)
Тes
(С)
Комфортность P
(гПа)
Po
(гПа)
Тmin
(С)
Tmax
(С)
R
(мм)
R24
(мм)
S
(см)
04 17.08 ЮВ 6 45 км ясно +17.5 +14.2 81 +17 +17 1018.6 1016.4
05 17.08 ЮВ 7 40 км ясно +17.7 +14.7 83 +17 +17 1018.2 1016.0
06 17.08 ЮВ 7 35 км ясно +18.2 +15.3 83 +18 +18 1017.8 1015.6 +15.6 +18.8
07 17.08 ЮВ 8 35 км ясно +18.3 +15.7 85 +18 +18 1017.1 1014.9
08 17.08 ЮВ 9 24 км ясно +18.2 +16.0 87 +17 +18 1016.9 1014.6
09 17.08 ЮВ 8 13 км ясно +18.3 +16.3 88 +18 +20 1016.2 1014.0
10 17.08 ЮВ 8 13 км ясно +18.7 +16.9 89 +19 +21 1015.3 1013.0
11 17.08 ЮВ 10 17 км ясно +19.3 +16.9 86 +20 +21 1014.5 1012.3
12 17.08 ЮВ 9 15 км ясно +19.5 +17.3 87 +21 +22 комфорт 1013.8 1011.5
13 17.08 ЮВ 9 15 км ясно +19.5 +17.3 87 +21 +22 комфорт 1013.1 1010.9
14 17.08 Ю 7 9000 м морось {дождь} 4/4 300 м
[]
+19.7 +17.5 87 +22 +23 комфорт 1012.5 1010.3
15 17.08 ЮЗ 11 10 км слаб. дождь {морось} 6/6 300 м
[]
+19.9 +17.0 83 +22 +22 комфорт 1012.3 1010.1 1
16 17.08 ЮЗ 9 7000 м морось {дождь} 9/9 400 м
[]
+17.8 +16.0 89 +17 +17 1012.6 1010.4 0.9
17 17.08 ЮЗ 7 8000 м слаб. дождь {морось} 9/9 300 м
[]
+17.2 +16.2 94 +16 +16 1012.5 1010.3 3
18 17.08 ЮЗ 9 8000 м слаб. ливневой дождь 9/9 240 м
[]
+17.0 +16.0 94 +15 +15 1012.2 1010.0 +16.9 +20.0 4
19 17.08 ЮЗ 8 10 км {ливн. осадки} 5/5 800 м
[]
+17.1 +16.2 94 +16 +16 1012.2 1009.9 0.1
20 17.08 ЮЗ 7 9000 м дымка ясно +17.3 +16.3 94 +16 +16 1012.1 1009.9
21 17.08 ЮЗ 7 8000 м дымка {ливн. осадки} 1/1 500 м
[]
+17.1 +16.2 94 +16 +16 1012.0 1009.8 0.1
22 17.08 ЮЗ 8 6000 м дымка 5/5 450 м
[]
+17.0 +16.3 96 +16 +16 1012.1 1009.9
23 17.08 Ю 7 7000 м дымка 5/5 570 м
[]
+17.0 +16.2 95 +16 +16 1011.8 1009.6
00 18.08 Ю 7 6000 м дымка {ливн. осадки} 6/6 300 м
[]
+17.2 +16.5 96 +16 +16 1011.7 1009.5
01 18.08 ЮЗ 9 7000 м дымка 4/4 210 м
[]
+17.5 +16.6 94 +16 +16 1011.4 1009.2
02 18.08 ЮЗ 7 5000 м дымка ясно +17.4 +16.5 94 +16 +16 1011.4 1009.2
03 18.08 ЮЗ 7 4600 м дымка 4/4 180 м
[]
+17.2 +16.4 95 +16 +16 1011.2 1009.0
04 18.08 ЮЗ 7 5000 м дымка 4/4 180 м
[]
+17.2 +16.4 95 +16 +16 1011.2 1009.0
05 18.08 Ю 7 4600 м дымка ясно +17.3 +16.5 95 +16 +16 1011.2 1009.0
06 18.08 Ю 8 6000 м дымка 4/4 240 м
[]
+17.5 +16.4 93 +16 +17 1011.0 1008.8 +16.8 +17.6
07 18.08 ЮЗ 7 7000 м дымка 5/5 240 м
[]
+17.6 +16.2 91 +17 +17 1010.8 1008.6
08 18.08 ЮЗ 8 8000 м дымка 5/5 300 м
[]
+17.8 +16.1 90 +17 +17 1011.2 1009.0
09 18.08 ЮЗ 7 9000 м дымка 6/6 330 м
[]
+17.9 +16.0 89 +17 +18 1011.2 1009.0
10 18.08 ЮЗ 6 10 км 4/4 360 м
[]
+18.4 +15.9 85 +18 +21 1010.7 1008.5
11 18.08 ЮЗ 6 14 км 5/5 570 м
[]
+18.9 +16.0 83 +20 +22 1010.6 1008.4
12 18.08 ЮЗ 4 14 км 5/5 540 м
[]
+19.0 +16.3 84 +20 +24 1010.4 1008.2
13 18.08 ЮЗ 6 13 км 5/5 960 м
[]
+19.1 +16.2 83 +20 +23 1010.3 1008.1
14 18.08 ЮЗ 6 14 км 4/4 570 м
[]
+19.6 +16.4 82 +21 +24 комфорт 1009.9 1007.7
15 18.08 ЮЗ 5 15 км ясно +19.9 +15.9 78 +22 +25 комфорт 1009.3 1007.1
16 18.08 Ю 6 11 км ясно +19.0 +16.5 85 +20 +21 1008.8 1006.6
17 18.08 Ю 8 12 км ясно +18.6 +16.9 90 +19 +19 1008.4 1006.2
18 18.08 Ю 8 12 км слаб. ливневой дождь 4/4 330 м
[]
+18.6 +16.9 90 +19 +19 1008.0 1005.8 +17.4 +20.4 0.0
19 18.08 З 5 2300 м сильн. дождь {ливн. осадки} 5/5 90 м
[]
+16.4 +15.5 94 +15 +15 1008.3 1006.1 4
20 18.08 З 3 23 км в посл. час дождь {ливн. осадки} 5/5 1050 м
[]
+16.2 +15.6 96 +16 +16 1008.2 1006.0 3
21 18.08 ЮЗ 7 15 км слаб. морось {ливн. осадки, дождь} 4/4 450 м
[]
+16.4 +15.2 93 +15 +15 1008.0 1005.8 7
22 18.08 З 6 15 км в посл. час дождь {ливн. осадки} ясно +16.4 +15.4 94 +15 +15 1008.2 1006.0
23 18.08 ЮЗ 6 16 км ясно +16.1 +15.0 93 +15 +15 1007.6 1005.4
00 19.08 ЮЗ 7 15 км {ливн. осадки, дождь} ясно +15.8 +14.7 93 +14 +14 1008.0 1005.7
01 19.08 ЮЗ 8 15 км ясно +15.7 +14.5 93 +14 +14 1007.8 1005.6
02 19.08 ЮЗ 6 24 км слаб. ливневой дождь ясно +15.5 +13.9 90 +14 +14 1007.9 1005.7 0.3
03 19.08 ЮЗ 9 9000 м слаб. дождь {ливн. осадки} 6/6 210 м
[]
+15.2 +14.0 93 +13 +13 1008.2 1005.9 0.4
04 19.08 ЮЗ 11 22 км в посл. час дождь {ливн. осадки} ясно +14.9 +13.3 90 +12 +12 1008.6 1006.4 0.7
05 19.08 З 8 21 км в посл. час дождь {ливн. осадки} 4/4 450 м
[]
+13.9 +11.8 87 +11 +11 1009.1 1006.8 0.1
06 19.08 ЮЗ 13 27 км слаб. ливневой дождь 1/1 360 м
[]
+14.0 +11.5 85 +11 +11 1009.0 1006.8 +13.6 +18.7 0.8
07 19.08 ЮЗ 10 35 км в посл. час морось {ливн. осадки} ясно +14.6 +11.7 83 +12 +12 1009.6 1007.4
08 19.08 ЮЗ 9 45 км ясно +15.4 +12.7 84 +13 +14 1010.2 1008.0
09 19.08 З 6 18 км слаб. ливневой дождь 5/5 210 м
[]
+13.7 +10.5 81 +12 +13 1010.7 1008.5 0.4
10 19.08 ЮЗ 6 35 км в посл. час дождь {ливн. осадки} ясно +14.9 +11.1 78 +13 +18 1011.0 1008.8
11 19.08 Ю 4 40 км слаб. ливневой дождь 6/6 210 м
[]
+14.3 +11.8 85 +13 +17 1011.3 1009.1
12 19.08 З 8
{11}
30 км {ливн. осадки, дождь} 6/6 630 м
[]
+16.6 +12.6 77 +15 +16 1011.2 1008.9 0.3
13 19.08 ЮЗ 11 30 км ясно +17.9 +12.3 70 +17 +17 1011.4 1009.2
14 19.08 ЮЗ 9 11 км слаб. ливневой дождь {морось} ясно +16.7 +12.7 77 +15 +16 1012.2 1009.9
15 19.08 ЮЗ 8
{19}
35 км в посл. час дождь {ливн. осадки, морось} ясно +16.5 +13.3 81 +15 +16 1012.1 1009.9 8
16 19.08 З 8 5000 м слаб. ливневой дождь 5/5 210 м
[]
+14.9 +13.2 90 +13 +13 1012.3 1010.1 1
17 19.08 З 9 40 км в посл. час дождь {ливн. осадки} ясно +15.2 +12.4 83 +13 +13 1012.8 1010.6 0.5
18 19.08 З 5 35 км {ливн. осадки, дождь} 4/4 930 м
[]
+14.6 +11.1 80 +13 +13 1013.2 1011.0 +13.0 +18.0 2
19 19.08 ЮЗ 8 29 км в посл. час дождь {ливн. осадки} ясно +15.6 +12.6 82 +14 +14 1013.5 1011.3 0.3
20 19.08 ЮЗ 9 30 км ясно +15.5 +12.5 82 +13 +13 1013.6 1011.4
21 19.08 ЮЗ 9 28 км {ливн. осадки, дождь} ясно +14.6 +12.1 85 +12 +12 1014.1 1011.8 0.3
22 19.08 ЮЗ 11 30 км ясно +14.1 +11.9 87 +11 +11 1014.0 1011.7
23 19.08 ЮЗ 11 35 км ясно +13.7 +11.6 87 +10 +10 1014.0 1011.7
00 20.08 ЮЗ 12 45 км слаб. ливневой дождь ясно +14.1 +11.5 84 +11 +11 1013.8 1011.5
01 20.08 ЮЗ 11 35 км {ливн. осадки} ясно +13.5 +11.9 90 +10 +10 1013.8 1011.6
02 20.08 ЮЗ 12 30 км 4/4 1500 м
[]
+13.7 +12.1 90 +10 +10 1013.6 1011.4
03 20.08 ЮЗ 11 35 км {ливн. осадки} ясно +13.4 +11.7 89 +10 +10 1013.9 1011.6
04 20.08 ЮЗ 11 29 км 4/4 1500 м
[]
+13.7 +12.2 91 +10 +10 1014.1 1011.8
05 20.08 ЮЗ 12 19 км слаб. дождь {морось} 4/4 300 м
[]
+14.1 +12.5 90 +11 +11 1014.2 1011.9
06 20.08 ЮЗ 12 40 км в посл. час дождь {ливн. осадки} 1/1 400 м
[]
+13.9 +12.4 91 +11 +11 1014.5 1012.2 +13.1 +16.0 0.1
07 20.08 ЮЗ 12 30 км ясно +14.8 +12.2 84 +12 +12 1014.5 1012.3
08 20.08 ЮЗ 13 13 км слаб. дождь {ливн. осадки} 9/9 180 м
[]
+13.9 +13.0 94 +10 +10 1015.0 1012.7 2
09 20.08 ЮЗ 11 30 км в посл. час морось {ливн. осадки, дождь} ясно +15.1 +13.4 90 +13 +13 1015.2 1012.9 2
10 20.08 ЮЗ 11 20 км ясно +15.5 +13.6 88 +13 +13 1015.3 1013.0
11 20.08 ЮЗ 7 29 км слаб. ливневой дождь 1/1 360 м
[]
+15.4 +13.0 86 +14 +16 1015.6 1013.4
12 20.08 ЮЗ 6 30 км слаб. ливневой дождь ясно +16.8 +13.5 81 +16 +20 1016.1 1013.8 0.3
13 20.08 З 6 27 км в посл. час дождь {ливн. осадки} 4/4 180 м
[]
+17.3 +13.8 80 +16 +19 1016.3 1014.1 0.5
14 20.08 З 7 40 км ясно +19.2 +13.2 68 +20 +22 1016.1 1013.9
15 20.08 З 4
{13}
30 км слаб. ливневой дождь 4/4 240 м
[]
+15.5 +12.8 84 +14 +17 1016.6 1014.4 2
16 20.08 З 6 29 км в посл. час дождь {ливн. осадки} ясно +16.0 +13.2 83 +15 +16 1016.6 1014.3 0.3
17 20.08 З 6 30 км в посл. час дождь {ливн. осадки} ясно +15.7 +12.5 81 +14 +15 1016.8 1014.5
18 20.08 З 6 27 км {ливн. осадки, дождь} ясно +15.8 +12.6 81 +14 +14 1017.1 1014.8 +13.7 +19.7 0.3
19 20.08 З 7 30 км ясно +15.0 +12.3 84 +13 +13 1017.5 1015.3
20 20.08 З 7 30 км ясно +14.9 +12.5 86 +13 +13 1017.6 1015.4
21 20.08 З 6 14 км слаб. дождь 4/4 330 м
[]
+14.9 +12.7 87 +13 +13 1017.6 1015.4
22 20.08 З 6 28 км в посл. час дождь {ливн. осадки} ясно +14.2 +12.9 92 +12 +12 1017.5 1015.3 0.7
23 20.08 З 6 24 км ясно +14.1 +12.8 92 +12 +12 1017.3 1015.1
00 21.08 З 7 26 км {ливн. осадки, дождь} ясно +14.2 +12.7 91 +12 +12 1017.2 1014.9 0.7
01 21.08 З 7 28 км 4/4 720 м
[]
+14.3 +12.6 90 +12 +12 1017.1 1014.8
02 21.08 З 7 30 км 5/5 330 м
[]
+14.3 +12.7 90 +12 +12 1017.0 1014.8
03 21.08 З 6 28 км в посл. час морось {ливн. осадки} 5/5 150 м
[]
+14.2 +12.9 92 +12 +12 1016.8 1014.6
04 21.08 З 5 30 км 5/5 1050 м
[]
+14.3 +12.7 90 +13 +13 1017.0 1014.7
05 21.08 З 6 30 км 5/5 330 м
[]
+14.4 +13.0 91 +12 +12 1017.1 1014.8
06 21.08 З 6 35 км {ливн. осадки, морось} 4/4 1140 м
[]
+14.8 +13.0 89 +13 +13 1017.3 1015.1 +14.0 +15.9
07 21.08 СЗ 6 35 км 5/5 500 м
[]
+15.7 +12.8 83 +14 +15 1017.8 1015.6
08 21.08 З 7 35 км 5/5 480 м
[]
+16.1 +12.8 81 +15 +16 1018.2 1015.9
09 21.08 З 7
{12}
35 км 4/4 1170 м
[]
+17.2 +12.1 72 +16 +17 1018.4 1016.2
10 21.08 З 7 35 км 9/9 800 м
[]
+16.7 +11.6 72 +16 +16 1018.9 1016.7
11 21.08 З 7 30 км 5/5 1300 м
[]
+17.2 +12.4 73 +16 +18 1019.1 1016.9
12 21.08 СЗ 5 30 км 5/5 540 м
[]
+17.1 +11.9 71 +16 +19 1019.3 1017.1
13 21.08 З 7 30 км 4/4 960 м
[]
+18.0 +11.1 64 +17 +19 1019.3 1017.0
14 21.08 З 6 35 км 4/4 1080 м
[]
+17.7 +10.4 62 +17 +19 1019.4 1017.1
15 21.08 З 5
{13}
45 км 6/6 1230 м
[]
+17.3 +9.6 61 +17 +18 1019.6 1017.4
16 21.08 З 6 40 км 4/4 1350 м
[]
+17.0 +10.1 64 +16 +17 1019.7 1017.4
17 21.08 З 6 45 км 4/4 1440 м
[]
+16.0 +10.5 70 +15 +15 1019.9 1017.6
18 21.08 З 6
{13}
40 км 9/9 1410 м
[]
+15.6 +9.6 67 +14 +14 1020.0 1017.8 +14.8 +18.5
19 21.08 З 5 45 км ясно +14.2 +8.7 69 +13 +13 1020.4 1018.1
20 21.08 З 5 45 км 9/9 1080 м
[]
+14.5 +9.9 74 +13 +13 1020.6 1018.4
21 21.08 СЗ 4 45 км 9/9 1170 м
[]
+14.3 +9.3 72 +13 +13 1020.8 1018.5
22 21.08 З 4 45 км 9/9 1110 м
[]
+14.2 +9.1 71 +13 +13 1020.6 1018.4
23 21.08 З 3 45 км 9/9 1260 м
[]
+13.9 +9.5 75 +13 +13 1020.5 1018.3
00 22.08 З 4 45 км 9/9 1380 м
[]
+14.0 +9.8 76 +13 +13 1020.3 1018.1
01 22.08 З 5 40 км 9/9 800 м
[]
+13.9 +10.0 77 +12 +12 1020.5 1018.2
02 22.08 З 4 45 км 9/9 1410 м
[]
+13.5 +10.2 80 +12 +12 1020.3 1018.0
03 22.08 З 4 45 км 9/9 1500 м
[]
+13.4 +10.0 80 +12 +12 1020.2 1018.0
04 22.08 З 4 45 км 5/5 1200 м
[]
+12.9 +9.5 80 +11 +11 1020.3 1018.0
05 22.08 З 4 40 км ясно +12.4 +9.4 82 +11 +11 1020.4 1018.1
06 22.08 СЗ 4 45 км ясно +13.3 +9.7 79 +12 +13 1020.6 1018.3 +12.3 +15.6
07 22.08 СЗ 4 35 км 4/4 1500 м
[]
+14.2 +9.6 74 +13 +15 1020.5 1018.3
08 22.08 СЗ 5 40 км ясно +15.7 +9.2 65 +15 +18 1020.6 1018.4
09 22.08 СЗ 5 30 км 1/1 1080 м
[]
+16.9 +8.1 56 +16 +21 1020.6 1018.3
10 22.08 СЗ 5 40 км ясно +17.6 +8.3 54 +17 +23 1020.5 1018.3
11 22.08 СЗ 4 35 км 4/4 1170 м
[]
+17.5 +9.2 58 +17 +22 1020.4 1018.1
12 22.08 СЗ 3
{8}
35 км 4/4 1110 м
[]
+18.6 +9.6 56 +19 +25 1020.4 1018.2
13 22.08 З 5 35 км ясно +18.8 +10.7 59 +19 +24 1020.2 1018.0
14 22.08 З 6 30 км 4/4 960 м
[]
+18.9 +11.4 62 +19 +21 1020.0 1017.7
15 22.08 З 5 30 км 4/4 930 м
[]
+18.8 +12.3 66 +19 +21 1020.0 1017.7
16 22.08 З 5 30 км ясно +18.2 +12.3 68 +18 +20 1019.8 1017.5
17 22.08 З 4 35 км ясно +17.5 +12.5 72 +17 +18 1019.7 1017.5
18 22.08 З 4 35 км ясно +16.4 +12.8 79 +16 +16 1019.8 1017.5 +13.2 +19.4
19 22.08 З 4 30 км 4/4 1500 м
[]
+15.8 +13.0 83 +15 +15 1020.0 1017.7
20 22.08 З 3 27 км 4/4 1500 м
[]
+15.4 +13.3 87 +15 +15 1020.0 1017.7
21 22.08 З 3 23 км ясно +14.3 +12.9 91 +13 +13 1020.0 1017.7
22 22.08 З 4 24 км ясно +14.0 +12.7 92 +13 +13 1019.8 1017.5
23 22.08 З 3 19 км ясно +13.2 +12.1 93 +12 +12 1019.6 1017.3
00 23.08 З 2 17 км ясно +13.1 +12.2 94 +12 +12 1019.6 1017.3
01 23.08 З 3 16 км ясно +12.7 +11.9 95 +11 +11 1019.6 1017.3
02 23.08 СЗ 3 14 км ясно +12.5 +11.8 95 +11 +11 1019.4 1017.1
03 23.08 С 2 9000 м дымка ясно +13.1 +12.5 96 +12 +12 1019.2 1017.0
04 23.08 СВ 1 8000 м дымка ясно +13.4 +12.9 97 +13 +13 1019.3 1017.0
05 23.08 З 1 10 км ясно +13.6 +13.0 96 +14 +15 1019.4 1017.2
06 23.08 СЗ 1 15 км {дымка} ясно +14.3 +13.8 97 +15 +17 1019.6 1017.4 +12.4 +16.4
07 23.08 В 1 23 км ясно +15.4 +14.4 94 +17 +21 1019.3 1017.1
08 23.08 ЮВ 2 30 км ясно +16.8 +14.0 84 +17 +23 1019.6 1017.3
09 23.08 ЮВ 3 27 км ясно +17.6 +14.8 84 +18 +25 1019.8 1017.5
10 23.08 ЮВ 3 18 км ясно +18.1 +15.6 85 +19 +28 1019.7 1017.5
11 23.08 ЮВ 3 13 км ясно +17.1 +14.9 87 +17 +27 1019.6 1017.3
12 23.08 ЮВ 3 24 км {дымка} ясно +18.2 +15.2 83 +19 +28 1019.4 1017.2
13 23.08 ЮВ 3 25 км ясно +18.1 +14.8 81 +18 +26 1019.0 1016.8
14 23.08 ЮВ 4 35 км ясно +18.3 +12.5 69 +19 +24 1018.7 1016.5
15 23.08 ЮВ 4 28 км ясно +18.1 +12.8 71 +18 +22 1018.2 1016.0
16 23.08 ЮВ 4 14 км {дымка} ясно +17.8 +11.6 67 +18 +19 1017.7 1015.5
17 23.08 ЮВ 4 18 км {дымка} ясно +17.9 +10.7 63 +18 +18 1017.5 1015.3
18 23.08 В 5 5000 м дымка ясно +17.8 +11.6 67 +17 +17 1017.3 1015.1 +14.3 +18.7
19 23.08 ЮВ 5 6000 м дымка ясно +17.8 +13.1 74 +17 +17 1017.2 1015.0
21 23.08 В 6 2700 м дымка ясно +17.7 +12.3 71 +17 +17 1016.7 1014.5
22 23.08 ЮВ 7 4100 м дымка ясно +17.7 +12.3 71 +17 +17 1016.5 1014.3
23 23.08 СВ 6 2100 м дымка ясно +17.4 +12.2 72 +17 +17 1016.0 1013.8
00 24.08 ЮВ 8 27 км {дымка} ясно +17.4 +13.0 75 +16 +16 1015.5 1013.3
02 24.08 ЮВ 9 35 км ясно +17.3 +12.5 73 +16 +16 1014.0 1011.8
01 24.08 ЮВ 8 35 км ясно +17.2 +13.0 76 +16 +16 1014.8 1012.5
03 24.08 ЮВ 9 40 км ясно +17.4 +11.9 70 +16 +16 1013.5 1011.3

 

Местоположение метеостанции Kegnaes (Дания): широта 54.85 долгота 9.98 высота над уровнем моря 17 м.

В архиве по умолчанию представлена погода в Kegnaes за последнюю неделю. Архивные данные за месяц целиком и за предыдущие месяцы, начиная с января 2011 года, Вы можете получить, выбрав интересующий диапазон дат из раскрывающегося списка и нажав кнопку "Ввод!".

Внимание! Время в таблицах - всемирное. Для получения местного времени необходимо прибавить поправку, которая в Kegnaes равна 1 ч.

Смотрите также архив погоды в соседних городах и на ближайших метеорологических станциях:

Погода в Olpenitz (Германия) (20 км)
Погода в Gluecksburg (Германия) (31 км)
Погода в Taasinge (Дания) (42 км)
Погода в Leuchtturm Kiel (Германия) (43 км)
Погода в Toroe (Дания) (45 км)
Погода в Schleswig (Германия) (45 км)
Погода в Schleswig Airport (Германия) (52 км)
Погода в Kiel-Holtenau (Германия) (53 км)
Погода в Aarslev (Дания) (59 км)
Погода в Skrydstrup (Дания) (62 км)

Пояснения к столбцам:

Ветер - указаны скорость ветра в м/с - средняя за 10 мин, порывы в срок и между сроками (в фигурных скобках) и направление, откуда дует ветер: С - северный, СВ - северо-восточный, В - восточный, ЮВ - юго-восточный, Ю - южный, ЮЗ - юго-западный, З - западный, СЗ - северо-западный.
Видимость - горизонтальная дальность видимости в метрах или километрах. При видимости от 1 до 10 км при отсутствии осадков обычно наблюдается дымка, при ухудшении видимости до 1 км и менее - туман. В сухую погоду видимость может ухудшаться дымом, пылью или мглою.
Явления - указаны атмосферные явления, наблюдавшиеся в срок или в последний час перед сроком; фигурными скобками обозначены явления, наблюдавшиеся между сроками (за 1-3 часа до срока); квадратными скобками обозначены град или гололедные отложения с указанием их диаметра в мм.
Облачность - указаны через наклонную черту общая и нижняя облачность в баллах и высота нижней границы облаков в метрах; квадратными скобками обозначены формы облаков: Ci - перистые, Cs - перисто-слоистые, Cc - перисто-кучевые, Ac - высококучевые, As - высокослоистые, Sc - слоисто-кучевые, Ns - слоисто-дождевые, Cu - кучевые, Cb - кучево-дождевые. Подробнее классификацию облаков см. в Атласе облаков (PDF).
T - Температура воздуха - температура, измеренная на высоте 2 м над землей.
Td - Температура точки росы - температура, при понижении до которой содержащийся в воздухе водяной пар достигнет насыщения.
f - Относительная влажность воздуха - влажноcть воздуха, измеренная на высоте 2 м над землей.
Te - Эффективная температура - температура, которую ощущает одетый по сезону человек в тени. Характеристика душности погоды. При расчете учитывается влияние влажности воздуха и скорости ветра на теплоощущения человека.
Tes - Эффективная температура на солнце - температура, которую ощущает человек, с поправкой на солнечный нагрев. Характеристика знойности погоды. Зависит от высоты солнца над горизонтом, облачности и скорости ветра. Ночью, в пасмурную погоду, а также при ветре 12 м/с и более поправка равна нулю.
P - Атмосферное давление - приведенное к уровню моря атмосферное давление.
Po - Атмосферное давление - измеренное на уровне метеостанции атмосферное давление.
Tmin - Минимальная температура - минимум температуры воздуха на высоте 2 м над землей.
Tmax - Максимальная температура - максимум температуры воздуха на высоте 2 м над землей.
R - Количество осадков - Количество выпавших осадков за период времени, мм. При наведении курсора мыши на число - период времени, за который выпало указанное количество осадков.
R24 - Количество осадков - Количество выпавших осадков за 24 часа, мм.
S - Снежный покров - Высота снежного покрова, см. При наведении курсора мыши на число - состояние снежного покрова и степень покрытия местности в баллах.